Location: Auckland
(36.8670°S, 174.7670°E)
Time: 13:42:12
(UTC+13:00)

Cosmos 2360 Rocket - Pass Details

Date: 24 January 2019
Orbit: 834 x 845 km, 71.0° (Epoch: 19 February)

Event Time Altitude Azimuth Distance (km) Brightness Sun altitude
Exits shadow 22:43:36 - 337° (NNW) 2,559 4.5 -21.1°
Reaches altitude 10° 22:43:50 10° 337° (NNW) 2,467 4.4 -21.2°
Maximum altitude 22:49:32 82° 248° (WSW) 866 2.2 -21.9°
Drops below altitude 10° 22:55:17 10° 160° (SSE) 2,494 5.0 -22.7°
Sets 22:57:45 0° 159° (SSE) 3,435 5.8 -23.0°
